Regional Weather Roundup
Issued by NWS

Home | Current Version | Previous Version | Text Only | Print | Product List | Glossary Off
Versions: 1 2 3 4 5 6 7 8 9 10 11 12 13 14 15 16 17 18 19 20 21 22 23 24 25 26 27 28 29 30 31 32 33 34 35 36 37 38 39 40 41 42 43 44 45 46 47 48 49 50

000
ASUS43 KTOP 280008
RWRKS

WEATHER ROUNDUP FOR KANSAS
NATIONAL WEATHER SERVICE GOODLAND KS
700 PM CDT THU AUG 27 2015

NOTE:  "FAIR" INDICATES FEW OR NO CLOUDS BELOW 12,000 FEET WITH NO
SIGNIFICANT WEATHER AND/OR OBSTRUCTIONS TO VISIBILITY.

KSZ001>006-013>018-027>032-041>047-280100-
NORTHWEST KANSAS

CITY           SKY/WX    TMP DP  RH WIND       PRES   REMARKS
GOODLAND       PTSUNNY   89  48  24 NW15G22   29.92S
6HR MIN TEMP:  89; 6HR MAX TEMP:  95; 6HR PCP: TRACE;

HAYS           MOSUNNY   84  63  48 S35G46    29.82S
HILL CITY      SUNNY     97  54  23 W8        29.79F HX  95
6HR MIN TEMP:  94; 6HR MAX TEMP: 100;

RUSSELL        PTSUNNY   85  63  47 S24G36    29.83S
6HR MIN TEMP:  84; 6HR MAX TEMP: 100; 6HR PCP: TRACE;

$$

KSZ061>065-074>080-084>089-280100-
SOUTHWEST KANSAS

CITY           SKY/WX    TMP DP  RH WIND       PRES   REMARKS
DODGE CITY     CLOUDY    87  56  34 S17G29    29.89S
6HR MIN TEMP:  87; 6HR MAX TEMP:  97; 6HR PCP: TRACE;

ELKHART          N/A     89  56  32 S14         N/A
GARDEN CITY    CLOUDY    80  63  55 SW17G23   29.89R
6HR MIN TEMP:  80; 6HR MAX TEMP:  95;

GREAT BEND     CLOUDY    79  66  65 S15       29.87F
LIBERAL        PTSUNNY   91  57  31 S20       29.90S
PRATT          DRIZZLE   81  63  54 S17G24    29.91F
$$

KSZ066>073-081>083-090>101-280100-
SOUTHEAST KANSAS

CITY           SKY/WX    TMP DP  RH WIND       PRES   REMARKS
CHANUTE        PTSUNNY   74  69  85 SE9       29.98F
6HR MIN TEMP:  69; 6HR MAX TEMP:  77; 6HR PCP:  0.20;

COFFEYVILLE    CLOUDY    78  67  68 S10       29.99F
6HR MIN TEMP:  70; 6HR MAX TEMP:  82;

HUTCHINSON     MOSUNNY   84  64  50 S16G28    29.91R
6HR MIN TEMP:  83; 6HR MAX TEMP:  89;

MEDICINE LODGE   N/A     83  67  58 S10       29.90S
NEWTON         MOSUNNY   84  63  48 S14       29.96R
WICHITA INTL   PTSUNNY   85  64  49 S17G28    29.91F
6HR MIN TEMP:  81; 6HR MAX TEMP:  89;

WICHITA JABRA  PTSUNNY   85  66  53 S17       29.93S
6HR MIN TEMP:  82; 6HR MAX TEMP:  88;

WICHITA MCCONL PTSUNNY   85  64  49 SE16G24   29.93S
WINFIELD       PTSUNNY   83  66  56 SE14      29.95F
6HR MIN TEMP:  83; 6HR MAX TEMP:  90;

$$

KSZ007>012-019>026-033>040-048>060-102>105-280100-
NORTHEAST KANSAS

CITY           SKY/WX    TMP DP  RH WIND       PRES   REMARKS
CONCORDIA      CLOUDY    83  62  49 SE13      29.85F
6HR MIN TEMP:  82; 6HR MAX TEMP:  88;

EMPORIA        CLOUDY    77  66  68 SE12      29.95F
6HR MIN TEMP:  74; 6HR MAX TEMP:  88;

LAWRENCE       PTSUNNY   74  67  78 SE8       29.94F
6HR MIN TEMP:  72; 6HR MAX TEMP:  80;

MANHATTAN      CLOUDY    79  65  62 S8        29.90F
6HR MIN TEMP:  79; 6HR MAX TEMP:  92;

MARYSVILLE     CLOUDY   N/A N/A N/A S9        29.90R
OLATHE IND     PTSUNNY   71  67  87 S9        29.97F
6HR MIN TEMP:  68; 6HR MAX TEMP:  75; 6HR PCP:  0.17;

OLATHE EXE     MOSUNNY   69  66  90 S10       29.96F
6HR MIN TEMP:  65; 6HR MAX TEMP:  73; 6HR PCP:  0.29;

SALINA         PTSUNNY   86  65  49 S17G28    29.88R
6HR MIN TEMP:  85; 6HR MAX TEMP:  89;

TOPEKA BILLARD CLOUDY    76  65  68 S9        29.94F
6HR MIN TEMP:  76; 6HR MAX TEMP:  82;

TOPEKA FORBES  CLOUDY    75  65  70 S9        29.94F
6HR MIN TEMP:  75; 6HR MAX TEMP:  82;

$$


USA.gov is the U.S. government's official web portal to all federal, state and local government web resources and services.